Telstar 18

operational
NORAD ID: 28364 Int'l Des: 2004-024 Owner: LOR Country: US
HEOCIRCULAR

关于 Telstar 18

正在加载描述...

实时位置

正在加载3D地球...

即将过境

高度历史

Altitude vs Time

uPlot chart will show altitude changes over time

两行轨道根数

1 28364U 04024A 26063.13226090 .00000059 00000-0 00000+0 0 9996
2 28364 6.7061 71.0020 0006027 287.0326 86.4978 0.99011732 79266
Epoch: Mar 4, 2026 • Age: 21 hours

当前状态

高度 36118.4 km
速度 3.06 km/s
星下点 -6.52°S, 128.32°W
发射日期 Jun 29, 2004
运行时间 21.6 years
类型 other

技术详情

分类 Payload
质量 4845.00 kg
干质量 2000.00 kg
总质量 4845.00 kg
长度 5.60 m
直径 2.80 m
跨度 31.00 m
形状 Box + 2 Pan
制造商 LOR
平台类型 SSL-1300
阶段状态 In Orbit
所有者/国家 LOR/US

大型星座

Loading constellations...